Location: Cortos
(40.7190°N, 4.5893°W)
Time: 09:43:31
(UTC+00:00)

Cosmos 2360 Rocket - Pass Details

Date: 05 July 2020
Orbit: 832 x 846 km, 71.0° (Epoch: 07 August)

Event Time Altitude Azimuth Distance (km) Brightness Sun altitude
Rises 22:13:58 0° 239° (WSW) 3,379 5.4 -19.9°
Reaches altitude 10° 22:16:53 10° 254° (WSW) 2,451 4.8 -20.1°
Maximum altitude 22:21:20 24° 306° (NW) 1,691 4.5 -20.6°
Drops below altitude 10° 22:25:50 10° 359° (N) 2,470 5.5 -21.0°
Sets 22:28:48 0° 14° (NNE) 3,410 6.1 -21.3°
